DW7199 Weather Reports


time (UTC)temp
C
wind
direction
speed
KPH
gust
KPH
rain 1hr
cm
rain 24hr
cm
rain mn
cm
humidity
%
barometer
mb
20260510164529 27 183 4.8 11.3 0.00 0.00 0.00 57 1015.8
20260510163018 26 256 0.0 9.7 0.00 0.00 0.00 61 1015.7
20260510161514 27 34 3.2 8.0 0.00 0.00 0.00 61 1015.9
20260510160012 26 223 3.2 9.7 0.00 0.00 0.00 64 1015.8
20260510154508 26 247 3.2 8.0 0.00 0.00 0.00 66 1015.6
20260510153004 25 64 3.2 6.4 0.00 0.00 0.00 69 1015.5
20260510151503 25 293 3.2 8.0 0.00 0.00 0.00 70 1015.6
20260510150107 24 291 1.6 6.4 0.00 0.00 0.00 71 1015.5
20260510144555 23 4 1.6 8.0 0.00 0.00 0.00 77 1015.4
20260510143055 22 247 1.6 9.7 0.00 0.00 0.00 79 1015.5
20260510141549 22 260 3.2 8.0 0.00 0.00 0.00 81 1015.5
20260510140047 21 333 1.6 6.4 0.00 0.00 0.00 85 1015.4
20260510134542 21 8 0.0 0.0 0.00 0.00 0.00 90 1015.2
20260510133038 20 120 0.0 0.0 0.00 0.00 0.00 93 1015.0
20260510131536 18 58 0.0 0.0 0.00 0.00 0.00 95 1015.1
20260510130034 18 58 0.0 0.0 0.00 0.00 0.00 96 1015.3
20260510124551 17 58 0.0 0.0 0.00 0.00 0.00 97 1015.1
20260510123026 17 152 0.0 0.0 0.00 0.00 0.00 97 1015.0
20260510121522 16 152 0.0 0.0 0.00 0.00 0.00 96 1014.8
20260510120019 16 116 0.0 0.0 0.00 0.00 0.00 96 1014.7
20260510114516 15 91 0.0 3.2 0.00 0.00 0.00 96 1014.6
20260510113014 13 71 0.0 0.0 0.00 0.00 0.00 96 1014.4
20260510111508 12 143 0.0 0.0 0.00 0.00 0.00 95 1014.1
20260510110010 12 128 0.0 1.6 0.00 0.00 0.00 95 1013.9
20260510104507 12 58 0.0 0.0 0.00 0.00 0.00 94 1013.5
20260510103002 12 58 0.0 0.0 0.00 0.00 0.00 95 1013.2
20260510101605 12 20 0.0 0.0 0.00 0.00 0.00 94 1013.2
20260510094556 11 162 0.0 0.0 0.00 0.00 0.00 93 1012.9
20260510093056 11 162 0.0 0.0 0.00 0.00 0.00 93 1012.8
20260510091559 11 162 0.0 0.0 0.00 0.00 0.00 93 1012.7
20260510090103 11 162 0.0 0.0 0.00 0.00 0.00 92 1012.6
20260510084559 11 162 0.0 0.0 0.00 0.00 0.00 92 1012.6
20260510083052 11 162 0.0 0.0 0.00 0.00 0.00 91 1012.7
20260510081550 11 162 0.0 0.0 0.00 0.00 0.00 91 1012.4
20260510080057 11 162 0.0 0.0 0.00 0.00 0.00 90 1012.2
20260510074548 12 162 0.0 0.0 0.00 0.00 0.00 90 1012.2
20260510073047 12 162 0.0 0.0 0.00 0.00 0.00 90 1012.1
20260510071545 12 162 0.0 0.0 0.00 0.00 0.00 90 1012.4
20260510070048 12 162 0.0 0.0 0.00 0.00 0.00 90 1012.4
20260510064603 12 162 0.0 0.0 0.00 0.00 0.00 90 1012.4
20260510063046 12 162 0.0 0.0 0.00 0.00 0.00 89 1012.3
20260510061547 12 162 0.0 0.0 0.00 0.00 0.00 88 1012.1
20260510060041 12 162 0.0 0.0 0.00 0.00 0.00 87 1012.0
20260510054538 12 162 0.0 0.0 0.00 0.00 0.00 87 1012.0
20260510053037 12 162 0.0 0.0 0.00 0.00 0.00 87 1011.9
20260510051535 13 162 0.0 0.0 0.00 0.00 0.00 88 1011.8
20260510050032 13 162 0.0 0.0 0.00 0.00 0.00 86 1011.8
20260510044533 13 162 0.0 0.0 0.00 0.00 0.00 85 1011.8
20260510043029 13 162 0.0 0.0 0.00 0.00 0.00 86 1011.8
20260510041526 13 162 0.0 3.2 0.00 0.00 0.00 85 1011.8
20260510040027 14 162 0.0 0.0 0.00 0.00 0.00 82 1011.8
20260510034525 15 162 0.0 0.0 0.00 0.00 0.00 82 1011.8
20260510033025 15 162 0.0 0.0 0.00 0.00 0.00 81 1011.8
20260510031527 15 162 0.0 0.0 0.00 0.00 0.00 80 1011.8
20260510030024 16 162 0.0 0.0 0.00 0.00 0.00 78 1011.8
20260510024525 16 162 0.0 0.0 0.00 0.00 0.00 77 1011.8
20260510023021 17 162 0.0 0.0 0.00 0.00 0.00 75 1011.6
20260510021519 18 162 0.0 0.0 0.00 0.00 0.00 71 1011.4
20260510020018 18 162 0.0 0.0 0.00 0.00 0.00 70 1011.2
20260510014517 20 163 0.0 0.0 0.00 0.00 0.00 68 1010.9
20260510013020 21 162 0.0 0.0 0.00 0.00 0.00 67 1010.7
20260510011520 22 162 0.0 0.0 0.00 0.00 0.00 63 1010.6
20260510010014 24 162 0.0 0.0 0.00 0.00 0.00 56 1010.3
20260510004513 26 162 0.0 0.0 0.00 0.00 0.00 52 1010.1
20260510003013 27 162 0.0 0.0 0.00 0.00 0.00 43 1009.8
20260510001513 28 162 0.0 0.0 0.00 0.00 0.00 43 1009.8
20260510000012 29 162 0.0 0.0 0.00 0.00 0.00 35 1009.6
20260509234519 29 162 0.0 3.2 0.00 0.00 0.00 35 1009.4
20260509233028 29 162 0.0 3.2 0.00 0.00 0.00 32 1009.3
20260509231510 29 268 0.0 3.2 0.00 0.00 0.00 30 1009.3
20260509230010 28 276 0.0 1.6 0.00 0.00 0.00 30 1009.2
20260509224514 28 341 0.0 3.2 0.00 0.00 0.00 30 1009.1
20260509223010 28 25 1.6 4.8 0.00 0.00 0.00 30 1009.2
20260509221509 28 349 0.0 4.8 0.00 0.00 0.00 30 1009.4
20260509220016 28 104 0.0 6.4 0.00 0.00 0.00 32 1009.3
20260509214508 28 18 1.6 9.7 0.00 0.00 0.00 35 1009.4
20260509213007 29 4 3.2 6.4 0.00 0.00 0.00 30 1009.5
20260509211505 28 172 4.8 8.0 0.00 0.00 0.00 30 1009.4
20260509210005 28 46 0.0 3.2 0.00 0.00 0.00 30 1009.6
20260509204504 28 12 4.8 11.3 0.00 0.00 0.00 33 1009.6
20260509203002 28 237 1.6 6.4 0.00 0.00 0.00 34 1009.6
20260509201603 28 135 3.2 9.7 0.00 0.00 0.00 31 1009.6
20260509200107 27 359 1.6 12.9 0.00 0.00 0.00 31 1009.8
20260509194557 27 303 1.6 11.3 0.00 0.00 0.00 35 1009.8
20260509193100 28 322 4.8 8.0 0.00 0.00 0.00 40 1009.8
20260509191556 27 359 1.6 8.0 0.00 0.00 0.00 37 1009.9
20260509184553 26 25 4.8 11.3 0.00 0.00 0.00 38 1010.2
20260509183047 26 339 6.4 11.3 0.00 0.00 0.00 41 1010.2
20260509181546 26 344 6.4 11.3 0.00 0.00 0.00 39 1010.5
20260509180047 26 50 1.6 9.7 0.00 0.00 0.00 43 1010.6
20260509174542 25 17 6.4 11.3 0.00 0.00 0.00 42 1010.5
20260509173041 25 323 4.8 11.3 0.00 0.00 0.00 48 1010.5
20260509171540 25 264 4.8 9.7 0.00 0.00 0.00 53 1010.6
20260509170040 24 209 3.2 12.9 0.00 0.00 0.00 52 1010.7